Location: Göttingen
(51.5413°N, 9.9158°E)
Time: 17:31:59
(UTC+02:00)

EO-88 - Pass Details

Date: 01 July 2022
Orbit: 453 x 461 km, 97.3° (Epoch: 14 August)

Event Time Altitude Azimuth Distance (km) Brightness Sun altitude
Exits shadow 22:22:04 - 156° (SSE) 1,958 ? -5.4°
Reaches altitude 10° 22:22:51 10° 155° (SSE) 1,626 ? -5.5°
Maximum altitude 22:26:18 64° 74° (ENE) 527 ? -5.8°
Drops below altitude 10° 22:29:47 10° 352° (N) 1,637 ? -6.2°
Sets 22:31:52 0° 350° (N) 2,517 ? -6.4°
